Regional Weather Roundup
Issued by NWS

Home | Current Version | Previous Version | Text Only | Print | Product List | Glossary Off
Versions: 1 2 3 4 5 6 7 8 9 10 11 12 13 14 15 16 17 18 19 20 21 22 23 24 25 26 27 28 29 30 31 32 33 34 35 36 37 38 39 40 41 42 43 44 45 46 47 48 49 50

152
ASUS44 KLIX 202107
RWRLA
LOUISIANA WEATHER ROUNDUP
NATIONAL WEATHER SERVICE NEW ORLEANS LA
400 PM CDT MON APR 20 2015

NOTE: "FAIR" INDICATES FEW OR NO CLOUDS BELOW 12,000 FEET WITH NO
      SIGNIFICANT WEATHER AND/OR OBSTRUCTIONS TO VISIBILITY.
      SKY/WX - SKY CONDITION AND SIGNIFICANT WEATHER.
      TMP - AIR TEMPERATURE.    DP   - DEWPOINT TEMPERATURE.
      RH  - RELATIVE HUMIDITY.  PRES - PRESSURE.
      HX  - HEAT INDEX.         WCI  - WIND CHILL INDEX.

*  THESE STATIONS ARE NOT NWS OR FAA STATIONS AND ARE NOT UNDER
   NWS QUALITY CONTROL.

LAZ040-048-061>063-065-066-069-202200-
SOUTHEAST LOUISIANA

CITY           SKY/WX    TMP DP  RH WIND       PRES   REMARKS
N.O. AUDUBON     N/A     78  62  56 MISG        N/A
N.O. INTL ARPT PTSUNNY   77  55  46 NW13      29.84F
N.O. LAKEFRONT PTSUNNY   78  56  46 NW15      29.85S
SLIDELL        PTSUNNY   77  55  46 VRB7      29.83S
BATON ROUGE    PTSUNNY   73  52  47 W9        29.87F
BOOTHVILLE     MOSUNNY   79  59  50 W7        29.84F
BELLE CHASSE   PTSUNNY   78  55  44 NW8       29.83S
BOGALUSA*        N/A     77  53  42 NW8       29.85F
GALLIANO*      MOCLDY    82  60  46 MISG      29.84S
NEW ROADS*     FAIR      71  49  46 NW12      29.89F
GONZALES*      FAIR      74  53  47 NW12      29.86S
HAMMOND*       PTSUNNY   77  50  38 W13       29.87S
HOUMA*         MOSUNNY   81  55  41 NW10      29.84F
PORT FOURCHON* CLEAR     79  57  47 W10       29.88S

$$

LAZ041-044-053-054-202200-
SOUTHWEST LOUISIANA

CITY           SKY/WX    TMP DP  RH WIND       PRES   REMARKS
LAKE CHARLES   MOSUNNY   74  47  38 N13       29.90F
LAFAYETTE      MOSUNNY   75  49  39 N12       29.88F
PATTERSON      MOSUNNY   75  54  46 NW12      29.87F
SALT POINT       N/A     76  56  49 NW7       29.85F
NEW IBERIA     SUNNY     75  51  43 NW13      29.88F
CHENAULT AIRPK NOT AVBL

$$

LAZ027-028-202200-
CENTRAL LOUISIANA

CITY           SKY/WX    TMP DP  RH WIND       PRES   REMARKS
FORT POLK      MOSUNNY   71  42  35 W10       29.91F
ALEXANDRIA INT MOSUNNY   70  46  42 NW9       29.90F
ALEXANDRIA     SUNNY     71  42  35 NW7       29.90F

$$

LAZ001-002-202200-
NORTHWEST LOUISIANA

CITY           SKY/WX    TMP DP  RH WIND       PRES   REMARKS
SHREVEPORT     MOSUNNY   71  38  29 N10G21    29.93F
BARKSDALE AFB  SUNNY     71  36  28 N17       29.93F
DTN SHREVEPORT SUNNY     69  37  30 N12       29.93F

$$

LAZ014-016-202200-
NORTHEAST LOUISIANA

CITY           SKY/WX    TMP DP  RH WIND       PRES   REMARKS
MONROE         SUNNY     70  41  34 NW14      29.90F
TALLULAH       SUNNY     70  44  39 NW6       29.89F

$$




USA.gov is the U.S. government's official web portal to all federal, state and local government web resources and services.